Wind_Speed
114 120 127 135 138 137 137 143 136 130 127 127 122 118 121 117 115 111 109 110 113 112 109 109 108 106 102 101 101 95 91 88 87 89 85 84 85 81 77 84 74 71 71
107 116 122 127 139 139 138 138 143 137 131 129 128 123 120 121 120 119 117 113 114 115 115 114 114 110 108 108 104 98 99 94 92 92 90 87 90 84 84 84 87 80 79
103 111 118 123 128 141 141 140 140 141 136 130 129 127 127 127 126 123 124 118 120 118 118 115 115 115 113 115 109 104 101 100 98 96 95 94 94 98 88 86 87 88 81
100 105 113 120 124 129 141 141 141 139 141 140 132 132 129 130 128 129 129 126 125 124 126 123 118 111 112 115 113 110 104 103 100 100 99 99 99 100 93 89 90 89 88
99 104 110 117 122 128 131 140 142 141 139 140 144 137 133 131 129 129 131 129 128 125 126 123 118 120 116 115 117 116 110 109 104 101 102 102 104 102 97 94 92 96 90
98 103 107 113 118 123 128 133 139 142 142 142 140 141 140 133 133 133 133 132 131 132 133 132 128 124 121 118 120 121 119 113 111 107 106 105 107 106 103 104 97 98 95
96 102 106 108 113 119 123 127 132 137 141 144 145 141 143 143 138 137 138 134 133 135 135 133 131 131 128 125 124 126 124 122 120 116 112 111 112 110 108 106 104 100 101
93 100 105 108 110 113 117 121 126 132 137 141 143 145 144 144 144 140 137 138 136 137 136 136 132 132 131 130 128 128 129 126 123 121 116 115 112 111 108 109 110 107 106
94 97 103 107 107 110 114 117 120 126 132 136 140 142 145 146 148 146 142 135 138 137 137 139 137 137 135 134 133 132 130 128 127 125 122 119 118 116 113 116 115 114 113
93 95 99 104 107 109 111 114 117 120 125 130 136 140 142 145 146 148 148 146 135 139 140 137 136 137 137 137 135 133 133 131 129 130 129 126 123 122 122 123 121 117 113
91 93 96 100 103 106 109 111 114 117 120 124 130 136 139 143 146 147 147 151 149 136 138 143 143 139 137 138 138 136 139 133 134 133 131 132 126 124 125 125 124 122 122
90 92 94 96 100 104 107 110 113 114 117 119 123 128 134 137 141 147 149 150 153 156 145 140 140 145 146 144 137 135 136 134 135 135 133 133 132 131 127 126 126 125 127
90 92 93 94 95 98 104 107 110 113 116 118 121 123 125 130 134 139 145 150 151 152 154 153 146 142 142 144 146 145 145 143 139 136 136 133 132 132 131 131 130 129 127
87 89 91 93 93 94 97 101 106 109 113 116 119 122 123 123 125 130 135 139 146 152 152 152 152 154 149 144 142 143 143 144 142 142 144 143 140 135 137 133 134 134 128
84 86 88 90 91 92 94 98 100 104 106 110 116 120 122 123 124 125 127 129 134 139 146 152 154 155 155 155 157 153 147 146 145 142 139 138 139 140 139 136 134 131 132
84 85 87 89 91 92 93 94 97 100 102 104 108 113 118 122 123 123 124 125 126 129 133 140 145 151 154 155 155 155 156 155 155 152 148 144 143 141 139 137 137 137 134
86 87 87 88 89 91 91 93 94 97 100 102 104 107 111 116 120 121 123 124 125 125 127 129 133 139 145 150 153 156 157 157 156 157 157 156 153 151 145 145 144 142 141
88 89 89 90 90 90 90 92 93 94 96 100 103 105 106 109 113 117 120 122 123 124 125 126 128 130 133 137 141 145 148 153 156 159 159 161 164 164 162 159 154 154 155
85 87 89 90 90 91 92 93 94 94 96 97 99 102 104 107 109 112 116 119 121 124 125 126 126 128 130 131 133 136 139 142 146 148 153 156 158 159 162 163 163 163 162
79 82 85 87 89 90 91 93 94 95 96 97 99 100 101 104 107 110 112 115 118 120 122 125 126 127 129 129 131 132 133 135 136 138 141 143 144 146 149 151 152 153 152
72 75 78 82 84 86 88 90 92 94 95 97 99 100 101 102 104 106 108 110 112 115 117 120 121 124 127 128 129 129 129 130 130 131 132 132 133 134 134 134 134 133 134
69 72 74 76 78 81 84 86 88 89 92 95 96 97 98 100 102 103 104 106 109 111 114 116 118 120 122 123 125 126 127 127 127 127 128 127 127 127 127 126 126 125 125
67 70 72 74 75 77 79 81 83 85 87 90 91 93 95 97 98 100 102 103 105 107 111 113 116 118 120 120 121 121 122 123 124 124 124 123 122 122 121 120 119 118 118
64 67 70 72 73 76 77 79 81 82 84 85 87 88 89 90 91 92 95 96 98 101 105 107 111 114 116 118 120 121 121 120 120 122 121 121 120 120 119 118 117 116 114
62 65 66 69 71 74 76 78 80 81 83 84 85 86 87 88 89 90 91 92 94 96 98 100 102 105 108 113 115 117 118 120 121 122 121 120 119 118 117 117 116 114 112
61 63 65 66 69 72 73 75 78 80 82 83 84 85 86 87 88 89 90 90 92 91 93 96 98 100 102 105 105 108 111 115 117 119 120 120 120 119 118 117 116 114 112
Wind_Direction
228 227 227 228 227 228 227 229 229 226 225 229 229 231 233 234 233 234 238 243 243 245 246 248 250 251 252 254 255 259 258 260 262 263 263 261 263 270 269 266 270 273 274
229 228 226 226 228 228 229 227 228 229 227 226 228 230 233 234 235 234 236 238 244 246 244 246 248 249 252 253 254 258 262 257 260 262 261 260 261 266 269 270 270 273 272
229 229 227 225 225 228 229 230 229 230 229 225 226 229 231 234 235 236 235 235 240 243 246 247 248 249 250 252 256 255 260 255 258 261 261 261 262 261 268 268 269 271 272
230 229 229 227 225 225 227 229 230 229 230 229 224 227 229 232 233 235 234 236 238 241 244 247 249 250 253 254 256 255 257 255 259 260 259 261 262 264 267 269 268 271 271
231 230 229 230 228 227 226 225 228 230 229 230 230 225 227 230 232 232 235 235 235 238 242 245 244 247 250 253 257 256 256 256 257 260 260 262 261 263 266 270 271 271 274
229 231 232 231 230 230 228 227 226 228 230 230 230 231 225 227 230 232 235 235 236 238 240 242 244 245 247 249 252 256 258 256 256 257 258 258 259 260 266 269 273 272 276
230 230 232 233 233 232 231 230 229 227 227 230 231 230 230 227 228 231 234 235 237 238 239 242 245 246 246 247 250 252 254 257 257 257 257 256 258 259 260 262 266 267 270
230 232 231 233 234 233 233 232 232 231 230 228 229 231 231 230 228 229 232 235 236 239 241 242 243 246 248 248 247 249 252 254 257 259 260 259 259 260 259 258 267 268 267
231 230 232 233 233 234 234 234 234 233 232 232 231 230 231 231 230 229 229 233 236 238 241 242 243 244 245 248 250 249 250 253 254 256 258 260 260 263 262 264 267 269 268
233 231 231 232 233 234 234 235 235 234 234 234 234 233 232 232 233 231 230 229 233 237 238 240 243 245 246 247 249 251 253 252 254 256 258 260 261 262 266 265 269 271 270
233 232 231 231 232 234 235 234 235 236 235 235 235 235 234 234 233 234 234 232 230 231 237 240 241 243 245 246 247 249 251 255 255 256 257 260 261 262 263 266 265 268 271
233 233 232 232 232 233 234 235 235 235 236 237 237 237 237 236 236 235 235 236 234 236 233 236 240 242 244 245 246 248 250 253 254 255 258 260 260 261 262 264 266 266 267
234 234 234 233 233 234 234 235 236 236 236 237 238 239 239 238 238 238 237 236 238 238 239 239 237 239 242 246 247 249 251 252 254 254 255 257 259 261 261 262 265 266 268
236 235 235 235 235 235 235 236 236 236 237 238 239 240 241 241 240 239 239 240 239 239 240 241 241 239 239 241 244 247 249 252 254 256 257 257 259 259 262 263 264 264 265
238 238 237 237 237 237 237 236 236 237 237 237 238 239 240 242 242 242 241 241 241 242 242 242 242 243 243 244 244 244 246 248 251 251 253 254 255 258 260 262 263 263 264
238 239 239 239 239 239 238 238 237 237 238 238 238 239 240 241 242 243 244 244 243 243 243 243 243 243 244 245 245 246 248 247 247 249 252 254 255 258 259 259 259 260 261
240 240 240 240 241 241 241 240 239 238 238 238 238 238 239 240 241 242 243 244 245 245 245 246 246 246 246 246 247 247 247 248 249 249 249 250 251 253 255 256 258 260 261
240 241 242 242 242 242 242 242 241 240 240 239 239 239 239 240 241 242 242 244 244 245 246 247 247 247 248 248 248 249 250 250 250 251 251 252 252 253 255 256 257 258 260
240 241 243 243 243 243 243 243 243 243 243 241 241 240 240 240 240 241 243 243 244 245 246 246 247 248 248 249 249 250 251 251 252 252 252 252 253 254 255 257 259 261 262
241 240 241 242 243 243 243 243 243 244 244 244 244 242 242 242 241 241 242 243 244 245 246 247 247 248 249 249 250 250 251 252 253 255 255 255 256 256 257 258 259 260 261
243 243 242 241 242 243 243 244 244 244 244 245 245 245 244 244 244 243 243 243 244 245 246 247 247 248 249 249 251 251 252 253 253 254 255 256 256 257 258 259 260 261 261
244 244 244 245 245 244 244 244 244 244 245 245 245 245 246 246 246 246 245 245 244 245 245 245 247 248 248 249 249 250 251 252 253 254 255 255 256 257 258 259 260 260 261
247 247 247 247 246 246 247 247 246 246 246 246 246 246 246 246 246 247 247 247 247 246 246 246 246 247 248 249 250 251 251 251 252 253 254 255 256 256 257 258 259 260 261
249 248 248 248 248 248 248 248 248 248 248 248 249 248 249 249 249 248 248 248 247 247 248 247 247 248 248 248 249 249 250 251 252 253 253 254 255 256 257 258 259 260 261
251 250 249 250 250 249 248 249 249 249 249 250 250 250 250 250 251 250 251 250 249 249 249 248 248 249 249 248 249 250 250 250 251 251 252 253 254 255 256 257 259 260 260
253 253 252 251 249 249 249 250 250 250 250 250 250 250 250 250 251 251 251 251 252 250 250 251 251 250 249 249 249 250 250 249 250 250 251 252 253 253 254 255 257 258 259
Height
10482 10496 10512 10527 10543 10557 10571 10587 10600 10612 10622 10631 10643 10653 10659 10672 10683 10689 10693 10694 10703 10712 10717 10721 10727 10732 10744 10749 10752 10762 10767 10771 10776 10781 10783 10786 10790 10793 10797 10800 10802 10802 10801
10460 10470 10487 10501 10517 10531 10544 10559 10573 10587 10599 10610 10620 10632 10641 10648 10660 10673 10677 10680 10680 10689 10700 10705 10710 10719 10726 10727 10737 10742 10744 10755 10757 10761 10766 10770 10775 10779 10780 10783 10784 10788 10788
10440 10449 10463 10478 10490 10507 10521 10534 10547 10561 10576 10588 10599 10608 10619 10624 10637 10648 10659 10663 10662 10668 10672 10683 10688 10699 10709 10709 10717 10726 10728 10737 10740 10745 10747 10747 10755 10761 10766 10768 10769 10770 10773
10421 10430 10440 10452 10466 10475 10491 10506 10521 10536 10550 10565 10576 10585 10594 10604 10613 10622 10634 10643 10645 10650 10650 10658 10670 10678 10680 10688 10695 10702 10710 10716 10721 10726 10731 10732 10734 10736 10745 10748 10750 10752 10754
10400 10407 10415 10426 10439 10451 10463 10475 10492 10508 10523 10537 10552 10564 10573 10581 10591 10598 10604 10619 10627 10630 10635 10642 10653 10654 10662 10667 10668 10678 10689 10695 10701 10707 10712 10715 10716 10720 10726 10727 10730 10732 10735
10378 10385 10392 10402 10413 10427 10440 10453 10466 10482 10497 10512 10526 10539 10551 10559 10566 10575 10580 10593 10601 10609 10613 10620 10628 10636 10644 10650 10654 10654 10660 10672 10679 10688 10693 10697 10700 10703 10706 10708 10709 10712 10713
10358 10365 10372 10378 10390 10403 10417 10430 10445 10458 10470 10484 10498 10512 10525 10537 10544 10551 10559 10567 10577 10583 10592 10599 10604 10611 10621 10629 10635 10639 10641 10644 10652 10665 10672 10678 10682 10684 10690 10694 10695 10697 10702
10337 10343 10351 10357 10367 10380 10393 10406 10420 10434 10446 10456 10469 10484 10497 10510 10522 10530 10536 10546 10553 10560 10569 10575 10583 10589 10593 10602 10611 10618 10623 10627 10631 10637 10645 10651 10658 10664 10668 10672 10677 10680 10684
10314 10323 10329 10337 10347 10357 10369 10382 10394 10407 10419 10432 10443 10455 10468 10482 10496 10506 10516 10520 10529 10538 10543 10550 10559 10565 10572 10575 10580 10594 10602 10608 10612 10616 10623 10629 10635 10640 10644 10651 10657 10659 10664
10292 10303 10310 10316 10324 10334 10344 10357 10369 10380 10392 10404 10416 10428 10439 10451 10463 10476 10488 10499 10502 10512 10520 10525 10532 10541 10549 10553 10559 10565 10571 10582 10590 10596 10601 10608 10616 10620 10625 10629 10633 10638 10641
10270 10279 10289 10297 10304 10312 10321 10332 10345 10355 10366 10378 10388 10399 10411 10423 10435 10446 10457 10469 10478 10485 10492 10499 10508 10515 10521 10529 10535 10543 10547 10553 10561 10570 10578 10584 10593 10598 10603 10607 10612 10615 10616
10248 10256 10265 10274 10282 10290 10298 10307 10319 10330 10341 10351 10361 10371 10383 10395 10407 10418 10426 10437 10448 10459 10467 10475 10481 10489 10497 10504 10511 10518 10523 10530 10537 10544 10552 10556 10565 10571 10578 10583 10587 10590 10593
10226 10234 10242 10251 10260 10269 10276 10284 10293 10304 10314 10324 10334 10343 10354 10365 10377 10388 10399 10410 10421 10431 10440 10451 10458 10464 10471 10478 10485 10492 10497 10506 10513 10519 10525 10532 10537 10542 10547 10554 10559 10565 10571
10204 10212 10220 10230 10238 10247 10255 10263 10270 10279 10289 10299 10308 10318 10328 10339 10350 10361 10371 10382 10393 10402 10411 10420 10430 10438 10445 10453 10458 10466 10472 10477 10486 10493 10500 10507 10512 10519 10524 10530 10533 10538 10543
10183 10192 10200 10208 10215 10222 10230 10238 10246 10254 10263 10273 10282 10292 10301 10310 10319 10328 10339 10351 10360 10371 10381 10390 10399 10407 10416 10424 10431 10437 10444 10450 10456 10463 10469 10476 10482 10489 10496 10501 10507 10512 10517
10160 10167 10176 10183 10189 10197 10206 10214 10222 10230 10238 10246 10255 10264 10273 10282 10291 10301 10310 10318 10328 10337 10346 10354 10364 10372 10382 10391 10398 10406 10414 10422 10428 10434 10443 10449 10454 10462 10467 10473 10479 10484 10490
10138 10144 10152 10159 10166 10174 10183 10190 10197 10205 10212 10220 10228 10236 10244 10252 10262 10272 10281 10288 10298 10308 10316 10325 10333 10340 10349 10357 10365 10373 10381 10388 10395 10404 10411 10419 10426 10432 10438 10445 10450 10455 10459
10116 10121 10128 10135 10142 10150 10158 10163 10171 10179 10186 10193 10201 10210 10219 10226 10235 10243 10250 10259 10268 10277 10284 10292 10300 10308 10314 10324 10333 10340 10348 10356 10364 10373 10380 10387 10395 10402 10407 10414 10420 10424 10426
10096 10101 10105 10112 10119 10125 10132 10138 10145 10152 10159 10167 10175 10182 10190 10197 10206 10213 10220 10229 10238 10245 10252 10260 10269 10275 10282 10292 10299 10306 10313 10320 10329 10337 10345 10352 10359 10366 10376 10386 10389 10392 10394
10073 10078 10083 10088 10093 10100 10106 10112 10119 10126 10132 10139 10146 10155 10163 10169 10176 10184 10192 10200 10208 10215 10223 10230 10238 10245 10250 10261 10267 10275 10280 10288 10298 10307 10312 10318 10327 10333 10340 10350 10354 10358 10361
10053 10056 10061 10065 10070 10075 10081 10086 10093 10100 10106 10113 10118 10125 10133 10139 10146 10155 10163 10173 10181 10187 10194 10201 10207 10214 10218 10228 10234 10243 10249 10256 10266 10271 10277 10285 10294 10300 10307 10315 10320 10325 10328
10032 10034 10038 10044 10049 10053 10056 10062 10069 10074 10079 10084 10090 10098 10106 10111 10117 10125 10132 10142 10150 10156 10161 10168 10174 10180 10185 10193 10202 10210 10218 10225 10233 10239 10245 10254 10262 10267 10274 10281 10288 10291 10297
10012 10014 10017 10021 10027 10030 10034 10039 10044 10048 10052 10057 10063 10070 10077 10084 10091 10097 10102 10110 10118 10124 10128 10135 10142 10147 10154 10163 10170 10177 10184 10191 10200 10206 10213 10222 10228 10235 10242 10248 10255 10261 10266
9992 9994 9996 10000 10005 10006 10010 10014 10019 10023 10028 10033 10038 10045 10050 10057 10063 10069 10074 10081 10087 10093 10098 10105 10110 10115 10124 10131 10137 10142 10150 10161 10169 10171 10180 10188 10195 10203 10211 10217 10222 10230 10236
9970 9972 9975 9978 9981 9983 9987 9991 9994 9999 10003 10007 10013 10018 10023 10029 10035 10041 10046 10052 10056 10063 10069 10074 10081 10085 10091 10093 10104 10113 10122 10128 10134 10139 10148 10157 10165 10172 10180 10187 10193 10200 10207
9948 9949 9952 9955 9958 9959 9964 9969 9970 9974 9977 9982 9987 9992 9997 10002 10008 10013 10017 10022 10026 10034 10040 10044 10050 10054 10058 10065 10076 10081 10088 10093 10101 10109 10116 10124 10133 10142 10150 10157 10164 10171 10178